Flag for U.S.A. Weather past 2 weeks in Fort Lauderdale, Florida, U.S.A.

Now
81 °F

Passing clouds.


Feels Like: 87 °F
Forecast: 78 / 89 °F
Wind: No wind

Location: Fort Lauderdale / Hollywood International Airport

Current Time: Jul 31, 2015 at 7:50:24 AM

Latest Report: Jul 31, 2015 at 6:53 AM


Visibility: 10 mi

Pressure: 30.00 "Hg

Humidity: 82%

Dew point: 75 °F

Location of Fort LauderdaleLocation

Historic Weather in Fort Lauderdale — Graph

°F

Fort Lauderdale temperature yesterday

Maximum temperature yesterday: 91 °F (at 1:53 PM)
Minimum temperature yesterday: 80 °F (at 6:53 AM)
Average temperature yesterday: 85 °F

Past Weeks' High & Low Weather Summary

 TemperatureHumidityPressure
High95 °F (Jul 24, 2:53 PM)100% (Jul 25, 7:53 PM)30.09 "Hg (Jul 25, 7:53 PM)
Low76 °F (Jul 17, 1:53 AM)44% (Jul 24, 2:53 PM)29.88 "Hg (Jul 26, 4:53 AM)
Average83 °F76%30.00 "Hg
* Reported Jul 16 6:53 AM — Jul 31 6:53 AM, Fort Lauderdale, Weather by CustomWeather, © 2015

Note: Actual official high and low records may vary slightly from our data, if they occured in-between our weather recording intervals... More about our weather records

Advertising

Fort Lauderdale weather history for previous 24 hours

 ConditionsComfort  
Time TempWeatherWind HumidityBarometerVisibility
6:53 AM
Fri, Jul 31
81 °FPassing clouds.No wind82%30.00 "Hg10 mi
5:53 AM82 °FPassing clouds.No wind77%30.00 "Hg10 mi
4:53 AM82 °FPassing clouds.No wind77%30.00 "Hg10 mi
3:53 AM81 °FPassing clouds.3 mph79%29.99 "Hg10 mi
2:53 AM82 °FPassing clouds.3 mph77%29.99 "Hg10 mi
1:53 AM82 °FPassing clouds.No wind74%30.01 "Hg10 mi
12:53 AM82 °FPassing clouds.3 mph74%30.02 "Hg10 mi
11:53 PM
Thu, Jul 30
83 °FPassing clouds.7 mph70%30.03 "Hg10 mi
10:53 PM84 °FOvercast.8 mph67%30.03 "Hg10 mi
9:53 PM85 °FPassing clouds.8 mph68%30.01 "Hg10 mi
8:53 PM86 °FPartly sunny.8 mph63%29.99 "Hg10 mi
7:53 PM87 °FMostly cloudy.9 mph61%29.99 "Hg10 mi
6:53 PM89 °FPartly sunny.7 mph52%29.97 "Hg10 mi
5:53 PM90 °FPartly sunny.7 mph54%29.96 "Hg10 mi
4:53 PM90 °FBroken clouds.7 mph57%29.96 "Hg10 mi
3:53 PM90 °FMore clouds than sun.10 mph57%29.98 "Hg10 mi
2:53 PM90 °FBroken clouds.6 mph52%29.98 "Hg10 mi
1:53 PM91 °FPartly sunny.9 mph49%30.00 "Hg10 mi
12:53 PM90 °FPassing clouds.14 mph56%30.01 "Hg10 mi
11:53 AM89 °FPartly sunny.9 mph61%30.03 "Hg10 mi
10:53 AM87 °FBroken clouds.9 mph65%30.03 "Hg10 mi
9:53 AM84 °FBroken clouds.8 mph77%30.03 "Hg10 mi
8:53 AM82 °FPartly sunny.8 mph82%30.02 "Hg10 mi
7:53 AM81 °FPartly sunny.6 mph88%30.01 "Hg10 mi
Weather by CustomWeather, © 2015

See weather overviewHow to use our weather pages